Previsão horária em Caxhuacán

Hoje, 27 Julho, Terça-feira

Tempo Temperatura Precipitação Vento Pressão Humidade
00:00 +22°C° 0 mm 1 m/s 698 mmHg 86%
01:00 +22°C° 0 mm 1 m/s 698 mmHg 85%
02:00 +21°C° 0 mm 1 m/s 697 mmHg 84%
03:00 +21°C° 0 mm 1 m/s 698 mmHg 82%
04:00 +20°C° 0 mm 2 m/s 698 mmHg 81%
05:00 +20°C° 0 mm 2 m/s 698 mmHg 80%
06:00 +23°C° 0 mm 1 m/s 699 mmHg 74%
07:00 +25°C° 0 mm 1 m/s 699 mmHg 69%
08:00 +27°C° 0 mm 1 m/s 700 mmHg 64%
09:00 +28°C° 0 mm 1 m/s 700 mmHg 61%
10:00 +29°C° 0 mm 2 m/s 700 mmHg 58%
11:00 +30°C° 0 mm 2 m/s 699 mmHg 55%
12:00 +30°C° 0 mm 2 m/s 699 mmHg 56%
13:00 +30°C° 0 mm 2 m/s 699 mmHg 57%
14:00 +30°C° 0 mm 2 m/s 698 mmHg 57%
15:00 +29°C° 0 mm 2 m/s 698 mmHg 63%
16:00 +28°C° 0 mm 2 m/s 698 mmHg 69%
17:00 +27°C° 0 mm 2 m/s 698 mmHg 76%
18:00 +26°C° 0 mm 1 m/s 698 mmHg 79%
19:00 +24°C° 0 mm 1 m/s 699 mmHg 83%
20:00 +23°C° 0 mm 1 m/s 699 mmHg 87%
21:00 +23°C° 0 mm 1 m/s 699 mmHg 85%
22:00 +23°C° 0 mm 1 m/s 699 mmHg 82%
23:00 +21°C° 0 mm 2 m/s 699 mmHg 80%

Amanhã, 28 Julho, Quarta-feira

Tempo Temperatura Precipitação Vento Pressão Humidade
00:00 +21°C° 0 mm 2 m/s 698 mmHg 78%
01:00 +21°C° 0 mm 2 m/s 698 mmHg 76%
02:00 +21°C° 0 mm 2 m/s 698 mmHg 73%
03:00 +21°C° 0 mm 2 m/s 698 mmHg 72%
04:00 +21°C° 0 mm 2 m/s 698 mmHg 71%
05:00 +21°C° 0 mm 2 m/s 699 mmHg 69%
06:00 +23°C° 0 mm 1 m/s 699 mmHg 66%
07:00 +25°C° 0 mm 1 m/s 700 mmHg 62%
08:00 +27°C° 0 mm 1 m/s 700 mmHg 58%
09:00 +28°C° 0 mm 1 m/s 700 mmHg 58%
10:00 +29°C° 0 mm 2 m/s 700 mmHg 57%
11:00 +29°C° 0 mm 2 m/s 700 mmHg 56%
12:00 +29°C° 0.3 mm 2 m/s 699 mmHg 60%
13:00 +29°C° 0.3 mm 2 m/s 699 mmHg 64%
14:00 +29°C° 0.3 mm 1 m/s 699 mmHg 67%
15:00 +28°C° 0.3 mm 1 m/s 698 mmHg 72%
16:00 +27°C° 0.3 mm 1 m/s 698 mmHg 77%
17:00 +26°C° 0.3 mm 1 m/s 698 mmHg 82%
18:00 +25°C° 0.1 mm 1 m/s 698 mmHg 84%
19:00 +24°C° 0.1 mm 1 m/s 698 mmHg 85%
20:00 +24°C° 0.1 mm 1 m/s 699 mmHg 87%
21:00 +23°C° 0 mm 1 m/s 699 mmHg 87%
22:00 +23°C° 0 mm 1 m/s 699 mmHg 88%
23:00 +22°C° 0 mm 1 m/s 699 mmHg 89%

Depois de amanhã, 29 Julho, Quinta-feira

Tempo Temperatura Precipitação Vento Pressão Humidade
00:00 +22°C° 0.1 mm 1 m/s 698 mmHg 89%
01:00 +22°C° 0.1 mm 1 m/s 698 mmHg 89%
02:00 +22°C° 0.1 mm 1 m/s 698 mmHg 89%
03:00 +22°C° 0.1 mm 1 m/s 698 mmHg 89%
04:00 +22°C° 0.1 mm 1 m/s 698 mmHg 89%
05:00 +22°C° 0.1 mm 1 m/s 698 mmHg 89%
06:00 +23°C° 0 mm 1 m/s 699 mmHg 84%
07:00 +25°C° 0 mm 1 m/s 699 mmHg 78%
08:00 +26°C° 0 mm 1 m/s 700 mmHg 73%
09:00 +27°C° 0.1 mm 1 m/s 700 mmHg 70%
10:00 +28°C° 0.1 mm 2 m/s 700 mmHg 67%
11:00 +29°C° 0.1 mm 2 m/s 700 mmHg 65%
12:00 +29°C° 0.7 mm 2 m/s 699 mmHg 67%
13:00 +28°C° 0.7 mm 2 m/s 699 mmHg 70%
14:00 +28°C° 0.7 mm 1 m/s 699 mmHg 73%
15:00 +26°C° 2.7 mm 1 m/s 699 mmHg 79%
16:00 +25°C° 2.7 mm 1 m/s 698 mmHg 86%
17:00 +24°C° 2.7 mm 1 m/s 698 mmHg 93%
18:00 +23°C° 1.6 mm 1 m/s 699 mmHg 93%
19:00 +23°C° 1.6 mm 1 m/s 699 mmHg 93%
20:00 +23°C° 1.6 mm 1 m/s 700 mmHg 94%
21:00 +23°C° 0.1 mm 1 m/s 700 mmHg 93%
22:00 +22°C° 0.1 mm 1 m/s 699 mmHg 92%
23:00 +22°C° 0.1 mm 1 m/s 699 mmHg 91%

30 Julho, Sexta-feira

Tempo Temperatura Precipitação Vento Pressão Humidade
00:00 +22°C° 0 mm 1 m/s 699 mmHg 90%
01:00 +22°C° 0 mm 1 m/s 699 mmHg 90%
02:00 +21°C° 0 mm 1 m/s 699 mmHg 89%
03:00 +21°C° 0 mm 1 m/s 699 mmHg 88%
04:00 +21°C° 0 mm 1 m/s 699 mmHg 88%
05:00 +21°C° 0 mm 1 m/s 699 mmHg 87%
06:00 +22°C° 0 mm 1 m/s 699 mmHg 83%
07:00 +24°C° 0 mm 1 m/s 700 mmHg 78%
08:00 +26°C° 0 mm 1 m/s 701 mmHg 74%
09:00 +26°C° 0.3 mm 1 m/s 700 mmHg 75%
10:00 +27°C° 0.3 mm 2 m/s 700 mmHg 75%
11:00 +27°C° 0.3 mm 2 m/s 700 mmHg 76%
12:00 +27°C° 1.3 mm 2 m/s 700 mmHg 77%
13:00 +27°C° 1.3 mm 1 m/s 700 mmHg 78%
14:00 +27°C° 1.3 mm 1 m/s 699 mmHg 78%
15:00 +26°C° 1.6 mm 1 m/s 699 mmHg 83%
16:00 +25°C° 1.6 mm 1 m/s 699 mmHg 87%
17:00 +24°C° 1.6 mm 1 m/s 699 mmHg 91%
18:00 +24°C° 0.6 mm 1 m/s 700 mmHg 91%
19:00 +23°C° 0.6 mm 1 m/s 700 mmHg 92%
20:00 +23°C° 0.6 mm 1 m/s 700 mmHg 93%
21:00 +23°C° 0 mm 1 m/s 700 mmHg 92%
22:00 +23°C° 0 mm 1 m/s 700 mmHg 90%
23:00 +22°C° 0 mm 1 m/s 700 mmHg 89%

31 Julho, Sábado

Tempo Temperatura Precipitação Vento Pressão Humidade
00:00 +22°C° 0 mm 1 m/s 700 mmHg 88%
01:00 +20°C° 0 mm 2 m/s 700 mmHg 87%
02:00 +20°C° 0 mm 2 m/s 699 mmHg 86%
03:00 +19°C° 0 mm 2 m/s 699 mmHg 85%
04:00 +19°C° 0 mm 2 m/s 700 mmHg 83%
05:00 +19°C° 0 mm 2 m/s 700 mmHg 81%
06:00 +21°C° 0 mm 2 m/s 700 mmHg 76%
07:00 +24°C° 0 mm 1 m/s 701 mmHg 72%
08:00 +26°C° 0 mm 1 m/s 701 mmHg 67%
09:00 +27°C° 0 mm 1 m/s 701 mmHg 66%
10:00 +28°C° 0 mm 2 m/s 701 mmHg 65%
11:00 +29°C° 0 mm 2 m/s 701 mmHg 64%
12:00 +29°C° 1.2 mm 2 m/s 701 mmHg 67%
13:00 +28°C° 1.2 mm 2 m/s 700 mmHg 70%
14:00 +28°C° 1.2 mm 1 m/s 700 mmHg 73%
15:00 +27°C° 1.7 mm 1 m/s 700 mmHg 78%
16:00 +25°C° 1.7 mm 1 m/s 700 mmHg 84%
17:00 +24°C° 1.7 mm 1 m/s 700 mmHg 90%
18:00 +24°C° 0.3 mm 1 m/s 700 mmHg 90%
19:00 +23°C° 0.3 mm 1 m/s 700 mmHg 90%
20:00 +23°C° 0.3 mm 1 m/s 700 mmHg 90%
21:00 +23°C° 0 mm 1 m/s 700 mmHg 90%
22:00 +23°C° 0 mm 1 m/s 700 mmHg 89%
23:00 +23°C° 0 mm 1 m/s 700 mmHg 89%

1 Agosto, Domingo

Tempo Temperatura Precipitação Vento Pressão Humidade
00:00 +22°C° 0 mm 1 m/s 700 mmHg 89%
01:00 +22°C° 0 mm 1 m/s 699 mmHg 88%
02:00 +21°C° 0 mm 2 m/s 699 mmHg 88%
03:00 +21°C° 0 mm 1 m/s 699 mmHg 87%
04:00 +21°C° 0 mm 1 m/s 699 mmHg 86%
05:00 +21°C° 0 mm 1 m/s 700 mmHg 86%
06:00 +23°C° 0 mm 1 m/s 700 mmHg 81%
07:00 +25°C° 0 mm 1 m/s 701 mmHg 76%
08:00 +26°C° 0 mm 1 m/s 701 mmHg 71%
09:00 +27°C° 0 mm 1 m/s 701 mmHg 69%
10:00 +28°C° 0 mm 2 m/s 701 mmHg 67%
11:00 +29°C° 0 mm 2 m/s 701 mmHg 65%
12:00 +29°C° 1 mm 2 m/s 700 mmHg 68%
13:00 +29°C° 1 mm 2 m/s 700 mmHg 71%
14:00 +28°C° 1 mm 1 m/s 699 mmHg 74%
15:00 +27°C° 0.9 mm 1 m/s 699 mmHg 79%
16:00 +26°C° 0.9 mm 1 m/s 699 mmHg 83%
17:00 +25°C° 0.9 mm 1 m/s 699 mmHg 88%
18:00 +25°C° 0.5 mm 1 m/s 699 mmHg 89%
19:00 +24°C° 0.5 mm 1 m/s 699 mmHg 90%
20:00 +22°C° 0.5 mm 0 m/s 700 mmHg 91%
21:00 +23°C° 0.2 mm 1 m/s 700 mmHg 91%
22:00 +23°C° 0.2 mm 1 m/s 700 mmHg 91%
23:00 +23°C° 0.2 mm 1 m/s 700 mmHg 91%
Mostrar mais

Necessitamos do seu Consentimento

A Meteoprog e os seus Fornecedores de Serviços podem armazenar e aceder a dados pessoais como cookies, identificadores do dispositivo ou outras tecnologias semelhantes existentes no seu dispositivo e processar estes dados para personalizar conteúdos e anúncios, assim como funcionalidades nas redes sociais e análise de tráfego.

  • Armazenar e/ou aceder a informações no seu dispositivo

    Os cookies, identificadores do dispositivo ou outras informações podem ser armazenados ou acedidos no seu dispositivo, para os fins acima indicados.

  • Anúncios e conteúdos personalizados, medição de anúncios e conteúdos, dados sobre o público-alvo e desenvolvimento de produtos

    Os anúncios e os conteúdos podem ser personalizados com base num perfil. Podem ser adicionados dados adicionais para uma maior personalização dos anúncios e dos conteúdos. A eficácia dos anúncios e dos conteúdos pode ser medida. Podem ser obtidas informações sobre o público que visualizou os anúncios e os conteúdos. Estes dados podem ser usados para desenvolver ou melhorar sistemas, softwares ou a experiência do utilizador.

Ao clicar em "Eu concordo”, permitirá o uso de cookies, identificadores do dispositivo e web beacons mencionados ou outras tecnologias semelhantes. As configurações do navegador do seu dispositivo podem ser alteradas.

Para certos fins, podem ser invocados interesses legítimos ao invés de consentimento. Pode ler mais informação sobre este assunto na nossa Política de Privacidade e Cookies.